Regional Weather Roundup
Issued by NWS Kansas City/Pleasant Hill, MO

Home | Current Version | Previous Version | Graphics & Text | Print | Product List | Glossary Off
Versions: 1 2 3 4 5 6 7 8 9 10 11 12 13 14 15 16 17 18 19 20 21 22 23 24 25 26 27 28 29 30 31 32 33 34 35 36 37 38 39 40 41 42 43 44 45 46 47 48 49 50

000
ASUS43 KEAX 050410
RWREAX

WEATHER ROUNDUP FOR EASTERN KANSAS AND NORTHWEST MISSOURI
NATIONAL WEATHER SERVICE KANSAS CITY/PLEASANT HILL MO
1100 PM CDT SAT JUL 04 2015

KSZ040-057-103>105-MOZ028-029-037-043-050500-
...KANSAS CITY METROPOLITAN AREA...

CITY           SKY/WX    TMP DP  RH WIND       PRES   REMARKS
K.C. INTL      CLEAR     71  64  78 SE6       29.99R
K.C. DOWNTOWN  CLEAR     76  64  66 SE5       29.98R HAZE
LEES SUMMIT    CLEAR     73  64  73 SE3       30.00R HAZE
OLATHE - IXD   CLEAR     71  64  78 E5        30.00R
OLATHE - OJC   CLEAR     71  63  75 SE3       29.99R HAZE
LAWRENCE       CLEAR     68  64  87 E6        29.98R FOG

$$

MOZ001>008-011>017-020>025-030>033-038>040-044>046-053-054-050500-
...NORTHERN AND CENTRAL MISSOURI...

CITY           SKY/WX    TMP DP  RH WIND       PRES   REMARKS
ST. JOSEPH     CLEAR     72  64  76 SE7       29.98R
MOSBY          CLEAR     68  68 100 CALM      29.99R
HARRISONVILLE  CLEAR     68  66  94 E3        30.02R
WARRENSBURG    CLEAR     70  63  78 SE5       29.99R
WHITEMAN AFB   CLEAR     70  66  87 SE3       29.99R
CLINTON        CLEAR     73  68  83 SE3       30.00R
SEDALIA        PTCLDY    72  65  78 SE6       30.02R
WARSAW         FAIR      70  66  88 CALM      30.01S
CHILLICOTHE      N/A     68  65  90 CALM      30.00R
KIRKSVILLE     PTCLDY    65  61  87 S3        30.02R

$$

MOZ041-047>049-056>058-063>065-088>090-097-050500-
...EASTERN AND SOUTHERN MISSOURI...

CITY           SKY/WX    TMP DP  RH WIND       PRES   REMARKS
ST. LOUIS INTL PTCLDY    73  63  68 E5        30.03R HAZE
SPIRIT OF STL  CLEAR     69  66  90 CALM      30.01R FOG
COLUMBIA       PTCLDY    72  65  78 SE6       30.02R
JEFFERSON CITY PTCLDY    71  66  84 E3        30.01R
MEXICO         CLEAR    N/A N/A N/A S5        30.02R
ROLLA          CLEAR     69  66  90 SE7       30.03R
LEBANON        PTCLDY    72  66  83 E3        30.04R
OSAGE BEACH    MOCLDY    72  64  78 CALM      30.02R
SPRINGFIELD    PTCLDY    73  68  84 SE7       30.01R HAZE
BRANSON        PTCLDY    72  68  88 CALM      30.04R
JOPLIN         CLEAR     74  67  78 E6        29.99R HAZE
WEST PLAINS    MOCLDY    72  68  87 CALM      30.06R

$$

IAZ060-094-KSZ022-034>040-054-083-096-NEZ052-066-093-050500-
...KANSAS...SOUTHEAST NEBRASKA AND IOWA...

CITY           SKY/WX    TMP DP  RH WIND       PRES   REMARKS
TOPEKA         CLEAR     72  65  78 E5        29.97R HAZE
MANHATTAN      CLEAR     74  65  73 SE6       29.94R
EMPORIA        CLEAR     73  65  75 SE9       29.97R
CHANUTE        CLEAR     75  68  78 E8        29.98R
WICHITA        PTCLDY    80  65  59 SE10      29.94R HAZE
OMAHA          CLEAR     70  63  78 SE10      29.95R SMOKE
LINCOLN        CLEAR     74  65  73 S10       29.94R HAZE
FALLS CITY     CLEAR     69  63  81 SE6       29.96R
LAMONI         PTCLDY    71  62  73 SE9       29.99R
DES MOINES     PTCLDY    70  60  70 S7        29.98R

$$



USA.gov is the U.S. government's official web portal to all federal, state and local government web resources and services.